{"data":{"norad_id":67524,"epoch":"2026-09-20T14:52:35.935968Z","epoch_age_seconds":86337,"freshness":"FRESH","line1":"1 67524U 26013C   26263.61986037 -.00000103  00000+0  44980-4 0  9998","line2":"2 67524  50.0112  13.5228 0000719 105.9126 254.1826 13.29330861 32747","mean_motion":13.29330861,"eccentricity":7.19e-5,"inclination_deg":50.0112,"raan_deg":13.5228,"arg_perigee_deg":105.9126,"mean_anomaly_deg":254.1826,"bstar":4.498e-5,"rev_number":3274,"period_min":108.32517639113,"perigee_km":1148.7469994319,"apogee_km":1149.8294431788,"semimajor_km":7527.4252213054,"source":"CELESTRAK","updated_at":"2026-09-21T09:00:16.679034Z"}}